Sioux City, IA

3:52 PM CST on November 18, 2017 (GMT -0600)
Sioux Gateway

Weather History for KSUX - March, 2013

Change the Weather History Date:

Tuesday, March 5, 2013

  Actual Average Record
Temperature  
Mean Temperature 26 °F 32 °F  
Max Temperature 29 °F 42 °F 74 °F (1991)
Min Temperature 22 °F 22 °F -22 °F (1960)
Degree Days  
Heating Degree Days 39 33  
Month to date heating degree days 195 171  
Since 1 July heating degree days 5344 5465  
Cooling Degree Days 0 0  
Month to date cooling degree days 0 0  
Year to date cooling degree days 0 0  
Moisture  
Dew Point 19 °F    
Average Humidity 75    
Maximum Humidity 86    
Minimum Humidity 65    
Precipitation  
Precipitation T in 0.05 in 0.80 in (1992)
Month to date precipitation T 0.22  
Year to date precipitation 1.20 1.51  
Snow  
Snow 0.20 in 0.30 in 5.20 in (1915)
Month to date snowfall 0.2 1.3  
Since 1 July snowfall 21.0 27.8  
Snow Depth 1.00 in    
Sea Level Pressure  
Sea Level Pressure 30.18 in    
Wind  
Wind Speed 23 mph (NW)    
Max Wind Speed 41 mph    
Max Gust Speed 48 mph    
Visibility 7 miles    
Events Snow    
T = Trace of Precipitation, MM = Missing Value Source: NWS Daily Summary

Daily Weather History Graph

Daily Weather History Graph

Search for Another Location

Airport or City:

Trip Planner

Search our weather history database for the weather conditions in past years. The results will help you decide how hot, cold, wet, or windy it might be!

Date:

Astronomy

Mar. 05, 2013 Rise Set
Actual Time 6:53 AM CST 6:20 PM CST
Civil Twilight 6:25 AM CST 6:48 PM CST
Nautical Twilight 5:53 AM CST 7:21 PM CST
Astronomical Twilight 5:20 AM CST 7:53 PM CST
Moon 2:12 AM CST (3/5) 11:55 AM CST (3/5)
Length of Visible Light 12h 22m
Length of Day
11h 26m
Last Quarter, 40% of the Moon is Illuminated
Mar 5
Last Quarter
Mar 11
New
Mar 19
First Quarter
Mar 27
Full
Apr 2
Last Quarter

Hourly Weather History & Observations

Time (CST) Temp. Windchill Dew Point Humidity Pressure Visibility Wind Dir Wind Speed Gust Speed Precip Events Conditions
1:52 AM 28.0 °F 15.7 °F 19.0 °F 69% 30.06 in 10.0 mi NW 17.3 mph 26.5 mph N/A   Overcast
2:52 AM 27.0 °F 13.5 °F 18.0 °F 69% 30.06 in 10.0 mi WNW 19.6 mph 26.5 mph N/A   Overcast
3:52 AM 26.1 °F 14.0 °F 17.1 °F 69% 30.05 in 10.0 mi WNW 15.0 mph 26.5 mph N/A   Overcast
4:07 AM 26.6 °F 13.4 °F 17.6 °F 69% 30.01 in 10.0 mi WNW 18.4 mph 26.5 mph N/A   Overcast
4:52 AM 25.0 °F 11.7 °F 18.0 °F 75% 30.05 in 10.0 mi WNW 17.3 mph 25.3 mph N/A   Overcast
5:52 AM 26.1 °F 12.3 °F 19.0 °F 75% 30.05 in 10.0 mi WNW 19.6 mph 27.6 mph 0.00 in   Overcast
6:52 AM 26.6 °F 13.1 °F 21.2 °F 80% 30.00 in 10.0 mi WNW 19.6 mph - N/A   Overcast
7:52 AM 27.0 °F 13.5 °F 23.0 °F 85% 30.05 in 4.0 mi NW 19.6 mph 34.5 mph 0.00 in Snow Light Snow
8:37 AM 26.6 °F 10.6 °F 21.2 °F 80% 30.04 in 2.0 mi NW 28.8 mph 42.6 mph 0.00 in Snow Light Snow
8:44 AM 26.6 °F 10.6 °F 21.2 °F 80% 30.05 in 1.5 mi NW 28.8 mph 42.6 mph 0.00 in Snow Light Snow
8:52 AM 27.0 °F 10.5 °F 21.9 °F 81% 30.09 in 1.8 mi NW 31.1 mph 39.1 mph 0.00 in Snow Light Snow
9:01 AM 26.6 °F 11.7 °F 23.0 °F 86% 30.06 in 0.8 mi NW 24.2 mph 39.1 mph N/A Snow Light Snow
9:26 AM 26.6 °F 9.8 °F 21.2 °F 80% 30.06 in 0.8 mi NW 32.2 mph 42.6 mph 0.00 in Snow Light Snow
9:42 AM 26.6 °F 9.3 °F 21.2 °F 80% 30.08 in 1.0 mi NW 34.5 mph 43.7 mph 0.00 in Snow Light Snow
9:52 AM 27.0 °F 10.0 °F 21.9 °F 81% 30.11 in 1.0 mi NW 33.4 mph 43.7 mph 0.00 in Snow Light Snow
10:10 AM 26.6 °F 9.8 °F 21.2 °F 80% 30.09 in 2.5 mi NW 32.2 mph 48.3 mph 0.00 in Snow Light Snow
10:14 AM 26.6 °F 9.8 °F 21.2 °F 80% 30.09 in 3.0 mi NW 32.2 mph 48.3 mph 0.00 in Snow Light Snow
10:21 AM 26.6 °F 10.3 °F 21.2 °F 80% 30.09 in 2.0 mi NNW 29.9 mph 46.0 mph 0.00 in Snow Light Snow
10:52 AM 27.0 °F 10.0 °F 21.9 °F 81% 30.15 in 4.0 mi NNW 33.4 mph 44.9 mph 0.00 in Snow Light Snow
11:52 AM 28.0 °F 12.5 °F 21.0 °F 75% 30.19 in 8.0 mi NNW 28.8 mph 43.7 mph 0.00 in Snow Light Snow
12:52 PM 28.0 °F 11.8 °F 19.9 °F 72% 30.19 in 9.0 mi NNW 32.2 mph 44.9 mph 0.00 in Snow Light Snow
1:52 PM 28.0 °F 12.3 °F 19.9 °F 72% 30.22 in 9.0 mi NNW 29.9 mph 41.4 mph 0.00 in Snow Light Snow
2:43 PM 28.4 °F 12.0 °F 19.4 °F 69% 30.20 in 9.0 mi NNW 33.4 mph 41.4 mph 0.00 in Snow Light Snow
2:52 PM 27.0 °F 10.5 °F 19.9 °F 75% 30.26 in 9.0 mi NNW 31.1 mph 39.1 mph 0.00 in Snow Light Snow
3:52 PM 27.0 °F 11.3 °F 19.9 °F 75% 30.29 in 10.0 mi NNW 27.6 mph 35.7 mph 0.00 in   Overcast
4:52 PM 27.0 °F 11.0 °F 18.0 °F 69% 30.32 in 9.0 mi NNW 28.8 mph 38.0 mph 0.00 in Snow Light Snow
5:52 PM 25.0 °F 8.9 °F 18.0 °F 75% 30.34 in 10.0 mi NNW 26.5 mph 35.7 mph 0.00 in   Overcast
6:52 PM 24.1 °F 10.1 °F 17.1 °F 75% 30.37 in 10.0 mi NNW 18.4 mph 31.1 mph N/A   Overcast
7:52 PM 23.0 °F 8.3 °F 16.0 °F 74% 30.39 in 10.0 mi NW 19.6 mph 25.3 mph N/A   Overcast
8:52 PM 23.0 °F 8.7 °F 16.0 °F 74% 30.40 in 10.0 mi NNW 18.4 mph 24.2 mph N/A   Overcast
9:52 PM 23.0 °F 10.1 °F 16.0 °F 74% 30.41 in 10.0 mi NW 15.0 mph - N/A   Overcast
10:52 PM 23.0 °F 9.2 °F 16.0 °F 74% 30.43 in 10.0 mi NNW 17.3 mph - N/A   Overcast
11:52 PM 21.9 °F 8.7 °F 15.1 °F 75% 30.45 in 10.0 mi NW 15.0 mph - N/A   Overcast